Location: Aranbee
(34.0885°N, 118.2342°W)
Time: 09:59:53
(UTC+00:00)

Courier 1B Rocket - Pass Details

Date: 27 November 2020
Orbit: 920 x 1202 km, 28.2° (Epoch: 19 January)

Event Time Altitude Azimuth Distance (km) Brightness Sun altitude
Exits shadow 12:53:37 - 222° (SW) 3,580 7.7 -21.2°
Reaches altitude 10° 12:55:11 10° 217° (SW) 3,124 7.4 -20.8°
Maximum altitude 13:01:50 31° 158° (SSE) 1,949 6.9 -19.5°
Drops below altitude 10° 13:08:23 10° 100° (E) 3,072 8.9 -18.2°
Sets 13:11:30 0° 90° (E) 4,003 9.7 -17.5°
